When you browse on this site, cookies collect data to enhance your experience and personalize the content and advertising you see.
Visit our Privacy Policy to learn more. By continuing to use the site, you agree to this use of cookies and data.
EN

Hourly Weather Kovylnyy

Today, 23 September, Wednesday

Time Temperature Precipitation Wind Pressure Humidity
00:00 +15°C° 0 mm 2 mps 760 mmHg 28%
01:00 +14°C° 0 mm 2 mps 760 mmHg 29%
02:00 +14°C° 0 mm 2 mps 760 mmHg 29%
03:00 +14°C° 0 mm 2 mps 760 mmHg 30%
04:00 +13°C° 0 mm 2 mps 760 mmHg 31%
05:00 +13°C° 0 mm 2 mps 760 mmHg 31%
06:00 +13°C° 0 mm 2 mps 760 mmHg 32%
07:00 +14°C° 0 mm 3 mps 760 mmHg 28%
08:00 +18°C° 0 mm 3 mps 760 mmHg 24%
09:00 +20°C° 0 mm 3 mps 760 mmHg 21%
10:00 +22°C° 0 mm 3 mps 760 mmHg 20%
11:00 +25°C° 0 mm 3 mps 759 mmHg 18%
12:00 +27°C° 0 mm 3 mps 759 mmHg 17%
13:00 +28°C° 0 mm 3 mps 759 mmHg 17%
14:00 +28°C° 0 mm 3 mps 758 mmHg 17%
15:00 +29°C° 0 mm 2 mps 758 mmHg 17%
16:00 +28°C° 0 mm 2 mps 757 mmHg 18%
17:00 +26°C° 0 mm 2 mps 757 mmHg 20%
18:00 +25°C° 0 mm 2 mps 757 mmHg 22%
19:00 +24°C° 0 mm 2 mps 757 mmHg 23%
20:00 +21°C° 0 mm 3 mps 757 mmHg 24%
21:00 +20°C° 0 mm 3 mps 757 mmHg 26%
22:00 +19°C° 0 mm 3 mps 757 mmHg 26%
23:00 +18°C° 0 mm 3 mps 757 mmHg 27%

Tomorrow, 24 September, Thursday

Time Temperature Precipitation Wind Pressure Humidity
00:00 +17°C° 0 mm 3 mps 757 mmHg 28%
01:00 +17°C° 0 mm 3 mps 757 mmHg 31%
02:00 +16°C° 0 mm 3 mps 757 mmHg 34%
03:00 +16°C° 0 mm 3 mps 757 mmHg 37%
04:00 +14°C° 0 mm 3 mps 757 mmHg 39%
05:00 +14°C° 0 mm 3 mps 757 mmHg 41%
06:00 +14°C° 0 mm 3 mps 757 mmHg 43%
07:00 +17°C° 0 mm 3 mps 757 mmHg 42%
08:00 +19°C° 0 mm 3 mps 757 mmHg 41%
09:00 +21°C° 0 mm 4 mps 757 mmHg 39%
10:00 +23°C° 0 mm 4 mps 757 mmHg 35%
11:00 +26°C° 0 mm 5 mps 757 mmHg 31%
12:00 +29°C° 0 mm 5 mps 757 mmHg 27%
13:00 +29°C° 0 mm 5 mps 757 mmHg 26%
14:00 +29°C° 0 mm 5 mps 756 mmHg 25%
15:00 +30°C° 0 mm 5 mps 756 mmHg 24%
16:00 +28°C° 0 mm 4 mps 756 mmHg 26%
17:00 +27°C° 0 mm 3 mps 756 mmHg 28%
18:00 +26°C° 0 mm 3 mps 756 mmHg 30%
19:00 +24°C° 0 mm 3 mps 756 mmHg 32%
20:00 +22°C° 0 mm 3 mps 756 mmHg 33%
21:00 +20°C° 0 mm 3 mps 756 mmHg 35%
22:00 +19°C° 0 mm 3 mps 756 mmHg 38%
23:00 +19°C° 0 mm 3 mps 756 mmHg 42%

Day after tomorrow, 25 September, Friday

Time Temperature Precipitation Wind Pressure Humidity
00:00 +18°C° 0 mm 3 mps 756 mmHg 45%
01:00 +17°C° 0 mm 3 mps 756 mmHg 49%
02:00 +17°C° 0 mm 3 mps 756 mmHg 52%
03:00 +16°C° 0 mm 3 mps 756 mmHg 55%
04:00 +16°C° 0 mm 3 mps 756 mmHg 56%
05:00 +16°C° 0 mm 3 mps 756 mmHg 57%
06:00 +14°C° 0 mm 4 mps 756 mmHg 58%
07:00 +17°C° 0 mm 4 mps 756 mmHg 51%
08:00 +19°C° 0 mm 5 mps 756 mmHg 44%
09:00 +21°C° 0 mm 5 mps 756 mmHg 37%
10:00 +23°C° 0 mm 6 mps 756 mmHg 35%
11:00 +26°C° 0 mm 6 mps 755 mmHg 33%
12:00 +28°C° 0 mm 6 mps 755 mmHg 32%
13:00 +28°C° 0 mm 6 mps 755 mmHg 30%
14:00 +29°C° 0 mm 5 mps 755 mmHg 29%
15:00 +30°C° 0 mm 5 mps 754 mmHg 27%
16:00 +28°C° 0 mm 4 mps 754 mmHg 28%
17:00 +27°C° 0 mm 4 mps 754 mmHg 30%
18:00 +26°C° 0 mm 3 mps 754 mmHg 31%
19:00 +25°C° 0 mm 3 mps 754 mmHg 33%
20:00 +22°C° 0 mm 3 mps 754 mmHg 36%
21:00 +21°C° 0 mm 4 mps 754 mmHg 38%
22:00 +20°C° 0 mm 4 mps 754 mmHg 38%
23:00 +20°C° 0 mm 4 mps 753 mmHg 39%

26 September, Saturday

Time Temperature Precipitation Wind Pressure Humidity
00:00 +19°C° 0 mm 4 mps 753 mmHg 39%
01:00 +19°C° 0 mm 4 mps 753 mmHg 41%
02:00 +18°C° 0 mm 4 mps 753 mmHg 43%
03:00 +18°C° 0 mm 4 mps 753 mmHg 46%
04:00 +18°C° 0 mm 4 mps 753 mmHg 45%
05:00 +17°C° 0 mm 5 mps 753 mmHg 45%
06:00 +16°C° 0 mm 5 mps 753 mmHg 45%
07:00 +19°C° 0 mm 5 mps 753 mmHg 42%
08:00 +20°C° 0 mm 6 mps 753 mmHg 40%
09:00 +21°C° 0 mm 6 mps 753 mmHg 37%
10:00 +24°C° 0 mm 7 mps 753 mmHg 31%
11:00 +27°C° 0 mm 7 mps 753 mmHg 25%
12:00 +29°C° 0 mm 7 mps 753 mmHg 19%
13:00 +30°C° 0 mm 7 mps 753 mmHg 18%
14:00 +30°C° 0 mm 7 mps 752 mmHg 17%
15:00 +32°C° 0 mm 8 mps 752 mmHg 16%
16:00 +30°C° 0 mm 7 mps 752 mmHg 21%
17:00 +28°C° 0 mm 7 mps 753 mmHg 25%
18:00 +27°C° 0 mm 7 mps 753 mmHg 29%
19:00 +24°C° 0 mm 7 mps 753 mmHg 36%
20:00 +22°C° 0 mm 7 mps 753 mmHg 43%
21:00 +20°C° 0 mm 7 mps 754 mmHg 49%
22:00 +20°C° 0 mm 7 mps 754 mmHg 51%
23:00 +18°C° 0 mm 7 mps 754 mmHg 53%

27 September, Sunday

Time Temperature Precipitation Wind Pressure Humidity
00:00 +18°C° 0 mm 7 mps 753 mmHg 55%
01:00 +17°C° 0 mm 7 mps 753 mmHg 55%
02:00 +17°C° 0 mm 7 mps 753 mmHg 55%
03:00 +16°C° 0 mm 7 mps 753 mmHg 55%
04:00 +16°C° 0 mm 7 mps 753 mmHg 55%
05:00 +15°C° 0 mm 7 mps 753 mmHg 55%
06:00 +15°C° 0 mm 8 mps 753 mmHg 55%
07:00 +16°C° 0 mm 8 mps 753 mmHg 51%
08:00 +17°C° 0 mm 9 mps 753 mmHg 48%
09:00 +19°C° 0 mm 9 mps 753 mmHg 44%
10:00 +22°C° 0 mm 9 mps 753 mmHg 42%
11:00 +23°C° 0 mm 9 mps 753 mmHg 39%
12:00 +26°C° 0 mm 9 mps 752 mmHg 37%
13:00 +28°C° 0 mm 9 mps 752 mmHg 34%
14:00 +29°C° 0 mm 9 mps 752 mmHg 32%
15:00 +31°C° 0 mm 9 mps 752 mmHg 30%
16:00 +29°C° 0 mm 8 mps 752 mmHg 31%
17:00 +29°C° 0 mm 8 mps 752 mmHg 33%
18:00 +28°C° 0 mm 7 mps 752 mmHg 34%
19:00 +27°C° 0.1 mm 8 mps 752 mmHg 36%
20:00 +26°C° 0.1 mm 8 mps 752 mmHg 38%
21:00 +24°C° 0.1 mm 9 mps 752 mmHg 40%
22:00 +23°C° 0.1 mm 8 mps 753 mmHg 43%
23:00 +22°C° 0.1 mm 7 mps 753 mmHg 46%

28 September, Monday

Time Temperature Precipitation Wind Pressure Humidity
00:00 +21°C° 0.1 mm 7 mps 754 mmHg 49%
01:00 +20°C° 0.3 mm 6 mps 754 mmHg 53%
02:00 +20°C° 0.3 mm 6 mps 754 mmHg 58%
03:00 +19°C° 0.3 mm 6 mps 754 mmHg 63%
04:00 +17°C° 0.1 mm 5 mps 755 mmHg 65%
05:00 +18°C° 0.1 mm 4 mps 755 mmHg 67%
06:00 +18°C° 0.1 mm 3 mps 756 mmHg 69%
07:00 +19°C° 0 mm 3 mps 756 mmHg 67%
08:00 +20°C° 0 mm 3 mps 757 mmHg 64%
09:00 +21°C° 0 mm 3 mps 757 mmHg 61%
10:00 +24°C° 0 mm 3 mps 757 mmHg 52%
11:00 +25°C° 0 mm 3 mps 758 mmHg 43%
12:00 +26°C° 0 mm 3 mps 758 mmHg 34%
13:00 +27°C° 0 mm 3 mps 758 mmHg 31%
14:00 +27°C° 0 mm 3 mps 758 mmHg 29%
15:00 +27°C° 0 mm 3 mps 758 mmHg 27%
16:00 +26°C° 0 mm 3 mps 758 mmHg 32%
17:00 +24°C° 0 mm 2 mps 758 mmHg 36%
18:00 +23°C° 0 mm 2 mps 758 mmHg 40%
19:00 +22°C° 0 mm 1 mps 758 mmHg 42%
20:00 +21°C° 0 mm 1 mps 758 mmHg 44%
21:00 +18°C° 0 mm 0 mps 758 mmHg 46%
22:00 +20°C° 0 mm 1 mps 757 mmHg 47%
23:00 +19°C° 0 mm 2 mps 757 mmHg 47%
Show more